Volver al catálogo

STARLINK-32897

ActivoComunicacionesVLEO
NORAD 62967·PAYLOAD·🇺🇸 United States

Lanzado Feb 11, 2025 desde Vandenberg Space Force Base

Loading…

Próximos Pases (próximas 24 horas)

TLE

ActualizadoSource: CelesTrak SupGP

Época: Sep 14, 2026, 22:38 UTC

1 62967C 25029V   26257.94354167  .00048508  00000+0  14333-2 0  2576
2 62967  53.1578  69.3919 0001140  86.5178 128.0567 15.34363067    17

Sigue STARLINK-32897 en tiempo real con AllMySat

Download on the App Store